When you browse on this site, cookies collect data to enhance your experience and personalize the content and advertising you see.
Visit our Privacy Policy to learn more. By continuing to use the site, you agree to this use of cookies and data.
  • Em Portugal
  • Lista de países
  • Para 7 dias
  • Temperatura da água
  • Mapas de satélite
  • Mapa do tempo
  • Widgets de tempo
  • user-avatar
    Iniciar Sessão

    Previsão horária em Veliko Tarnovo

    Hoje, 22 Janeiro, Terça-feira

    Tempo Temperatura Precipitação Vento Pressão Humidade
    00:00 -1°C° 0 mm 2 m/s 742 mmHg 86%
    01:00 -1°C° 0 mm 2 m/s 742 mmHg 85%
    02:00 -1°C° 0 mm 2 m/s 742 mmHg 85%
    03:00 -1°C° 0 mm 2 m/s 742 mmHg 85%
    04:00 -1°C° 0 mm 2 m/s 741 mmHg 85%
    05:00 -1°C° 0 mm 2 m/s 741 mmHg 85%
    06:00 -1°C° 0 mm 2 m/s 741 mmHg 85%
    07:00 -1°C° 0 mm 2 m/s 741 mmHg 85%
    08:00 0°C° 0 mm 3 m/s 740 mmHg 85%
    09:00 +1°C° 0 mm 3 m/s 740 mmHg 81%
    10:00 +2°C° 0 mm 3 m/s 740 mmHg 77%
    11:00 +3°C° 0 mm 4 m/s 740 mmHg 73%
    12:00 +4°C° 0 mm 4 m/s 739 mmHg 73%
    13:00 +4°C° 0 mm 4 m/s 739 mmHg 72%
    14:00 +5°C° 0 mm 4 m/s 738 mmHg 72%
    15:00 +4°C° 0.1 mm 4 m/s 737 mmHg 75%
    16:00 +4°C° 0.1 mm 4 m/s 737 mmHg 78%
    17:00 +3°C° 0.1 mm 4 m/s 736 mmHg 81%
    18:00 +4°C° 0.2 mm 4 m/s 736 mmHg 81%
    19:00 +4°C° 0.2 mm 4 m/s 735 mmHg 82%
    20:00 +3°C° 0.2 mm 5 m/s 735 mmHg 82%
    21:00 +3°C° 0 mm 5 m/s 734 mmHg 83%
    22:00 +4°C° 0 mm 4 m/s 734 mmHg 83%
    23:00 +4°C° 0 mm 4 m/s 733 mmHg 84%

    Amanhã, 23 Janeiro, Quarta-feira

    Tempo Temperatura Precipitação Vento Pressão Humidade
    00:00 +5°C° 0.2 mm 4 m/s 732 mmHg 84%
    01:00 +5°C° 0.2 mm 4 m/s 732 mmHg 85%
    02:00 +5°C° 0.2 mm 5 m/s 731 mmHg 85%
    03:00 +5°C° 0.2 mm 4 m/s 730 mmHg 86%
    04:00 +5°C° 0.2 mm 4 m/s 730 mmHg 86%
    05:00 +5°C° 0.2 mm 3 m/s 729 mmHg 87%
    06:00 +5°C° 0 mm 3 m/s 729 mmHg 88%
    07:00 +5°C° 0 mm 2 m/s 729 mmHg 89%
    08:00 +5°C° 0 mm 2 m/s 729 mmHg 91%
    09:00 +7°C° 0 mm 1 m/s 729 mmHg 87%
    10:00 +8°C° 0 mm 1 m/s 729 mmHg 83%
    11:00 +9°C° 0 mm 1 m/s 730 mmHg 79%
    12:00 +10°C° 0 mm 1 m/s 729 mmHg 76%
    13:00 +10°C° 0 mm 1 m/s 729 mmHg 72%
    14:00 +11°C° 0 mm 1 m/s 729 mmHg 69%
    15:00 +10°C° 0 mm 1 m/s 729 mmHg 73%
    16:00 +10°C° 0 mm 1 m/s 728 mmHg 76%
    17:00 +9°C° 0 mm 1 m/s 728 mmHg 80%
    18:00 +9°C° 0 mm 1 m/s 728 mmHg 81%
    19:00 +7°C° 0 mm 2 m/s 728 mmHg 83%
    20:00 +7°C° 0 mm 2 m/s 728 mmHg 85%
    21:00 +7°C° 0.1 mm 2 m/s 728 mmHg 87%
    22:00 +7°C° 0.1 mm 2 m/s 728 mmHg 88%
    23:00 +7°C° 0.1 mm 2 m/s 728 mmHg 90%

    Depois de amanhã, 24 Janeiro, Quinta-feira

    Tempo Temperatura Precipitação Vento Pressão Humidade
    00:00 +7°C° 0.1 mm 2 m/s 728 mmHg 90%
    01:00 +8°C° 0.1 mm 1 m/s 728 mmHg 90%
    02:00 +8°C° 0.1 mm 1 m/s 727 mmHg 90%
    03:00 +7°C° 0 mm 1 m/s 727 mmHg 91%
    04:00 +7°C° 0 mm 1 m/s 726 mmHg 92%
    05:00 +7°C° 0 mm 1 m/s 726 mmHg 93%
    06:00 +7°C° 0 mm 1 m/s 726 mmHg 93%
    07:00 +7°C° 0 mm 1 m/s 726 mmHg 94%
    08:00 +6°C° 0 mm 1 m/s 726 mmHg 94%
    09:00 +6°C° 0.8 mm 1 m/s 726 mmHg 93%
    10:00 +6°C° 0.8 mm 1 m/s 726 mmHg 93%
    11:00 +6°C° 0.8 mm 1 m/s 726 mmHg 93%
    12:00 +6°C° 1.5 mm 1 m/s 726 mmHg 93%
    13:00 +6°C° 1.5 mm 1 m/s 725 mmHg 93%
    14:00 +6°C° 1.5 mm 1 m/s 725 mmHg 93%
    15:00 +6°C° 0.3 mm 1 m/s 725 mmHg 94%
    16:00 +6°C° 0.3 mm 1 m/s 725 mmHg 95%
    17:00 +6°C° 0.3 mm 1 m/s 725 mmHg 95%
    18:00 +6°C° 0.6 mm 1 m/s 725 mmHg 95%
    19:00 +5°C° 0.6 mm 2 m/s 726 mmHg 95%
    20:00 +5°C° 0.6 mm 2 m/s 726 mmHg 95%
    21:00 +5°C° 0.6 mm 2 m/s 726 mmHg 95%
    22:00 +5°C° 0.6 mm 2 m/s 726 mmHg 94%
    23:00 +5°C° 0.6 mm 2 m/s 727 mmHg 94%

    25 Janeiro, Sexta-feira

    Tempo Temperatura Precipitação Vento Pressão Humidade
    00:00 +4°C° 0.9 mm 2 m/s 727 mmHg 94%
    01:00 +4°C° 0.9 mm 2 m/s 727 mmHg 94%
    02:00 +4°C° 0.9 mm 2 m/s 727 mmHg 93%
    03:00 +3°C° 0.2 mm 2 m/s 727 mmHg 93%
    04:00 +3°C° 0.2 mm 2 m/s 727 mmHg 93%
    05:00 +4°C° 0.2 mm 1 m/s 727 mmHg 93%
    06:00 +3°C° 0 mm 1 m/s 728 mmHg 93%
    07:00 +3°C° 0 mm 1 m/s 728 mmHg 93%
    08:00 +3°C° 0 mm 1 m/s 729 mmHg 93%
    09:00 +4°C° 0 mm 1 m/s 729 mmHg 91%
    10:00 +4°C° 0 mm 1 m/s 729 mmHg 88%
    11:00 +4°C° 0 mm 2 m/s 729 mmHg 86%
    12:00 +3°C° 1.1 mm 2 m/s 729 mmHg 87%
    13:00 +3°C° 1.1 mm 2 m/s 729 mmHg 89%
    14:00 +3°C° 1.1 mm 2 m/s 728 mmHg 90%
    15:00 +3°C° 1.1 mm 2 m/s 728 mmHg 91%
    16:00 +2°C° 1.1 mm 2 m/s 728 mmHg 92%
    17:00 +2°C° 1.1 mm 2 m/s 728 mmHg 93%
    18:00 +2°C° 1.1 mm 2 m/s 728 mmHg 93%
    19:00 +2°C° 1.1 mm 2 m/s 728 mmHg 94%
    20:00 +2°C° 1.1 mm 2 m/s 727 mmHg 94%
    21:00 +2°C° 0.7 mm 2 m/s 727 mmHg 94%
    22:00 +2°C° 0.7 mm 2 m/s 727 mmHg 95%
    23:00 +2°C° 0.7 mm 2 m/s 727 mmHg 95%

    26 Janeiro, Sábado

    Tempo Temperatura Precipitação Vento Pressão Humidade
    00:00 +3°C° 1.4 mm 2 m/s 727 mmHg 96%
    01:00 +3°C° 1.4 mm 2 m/s 726 mmHg 96%
    02:00 +3°C° 1.4 mm 2 m/s 726 mmHg 96%
    03:00 +3°C° 1.3 mm 2 m/s 726 mmHg 96%
    04:00 +2°C° 1.3 mm 2 m/s 726 mmHg 95%
    05:00 +2°C° 1.3 mm 2 m/s 726 mmHg 95%
    06:00 +2°C° 0.1 mm 2 m/s 727 mmHg 94%
    07:00 +1°C° 0.1 mm 2 m/s 727 mmHg 94%
    08:00 +1°C° 0.1 mm 2 m/s 728 mmHg 94%
    09:00 +1°C° 0 mm 2 m/s 728 mmHg 93%
    10:00 +1°C° 0 mm 2 m/s 728 mmHg 92%
    11:00 +1°C° 0 mm 2 m/s 729 mmHg 91%
    12:00 +1°C° 0 mm 2 m/s 729 mmHg 92%
    13:00 +1°C° 0 mm 2 m/s 729 mmHg 92%
    14:00 +1°C° 0 mm 2 m/s 729 mmHg 93%
    15:00 +1°C° 0.1 mm 2 m/s 729 mmHg 93%
    16:00 +1°C° 0.1 mm 2 m/s 729 mmHg 93%
    17:00 -1°C° 0.1 mm 2 m/s 729 mmHg 93%
    18:00 -1°C° 0.1 mm 2 m/s 730 mmHg 93%
    19:00 -1°C° 0.1 mm 2 m/s 730 mmHg 93%
    20:00 -1°C° 0.1 mm 2 m/s 730 mmHg 93%
    21:00 -1°C° 0.1 mm 2 m/s 730 mmHg 94%
    22:00 0°C° 0.1 mm 1 m/s 730 mmHg 94%
    23:00 0°C° 0.1 mm 1 m/s 730 mmHg 94%

    27 Janeiro, Domingo

    Tempo Temperatura Precipitação Vento Pressão Humidade
    00:00 0°C° 0.1 mm 1 m/s 730 mmHg 94%
    01:00 0°C° 0.1 mm 1 m/s 730 mmHg 94%
    02:00 0°C° 0.1 mm 1 m/s 730 mmHg 95%
    03:00 0°C° 0 mm 1 m/s 730 mmHg 95%
    04:00 0°C° 0 mm 1 m/s 730 mmHg 95%
    05:00 0°C° 0 mm 1 m/s 730 mmHg 95%
    06:00 -1°C° 0 mm 0 m/s 730 mmHg 94%
    07:00 -1°C° 0 mm 0 m/s 730 mmHg 93%
    08:00 -1°C° 0 mm 0 m/s 731 mmHg 93%
    09:00 0°C° 0 mm 0 m/s 731 mmHg 90%
    10:00 +2°C° 0 mm 1 m/s 731 mmHg 87%
    11:00 +3°C° 0 mm 1 m/s 731 mmHg 84%
    12:00 +4°C° 0 mm 1 m/s 731 mmHg 82%
    13:00 +5°C° 0 mm 1 m/s 731 mmHg 81%
    14:00 +5°C° 0 mm 1 m/s 730 mmHg 79%
    15:00 +5°C° 0 mm 1 m/s 731 mmHg 82%
    16:00 +5°C° 0 mm 1 m/s 731 mmHg 84%
    17:00 +4°C° 0 mm 1 m/s 731 mmHg 87%
    18:00 +4°C° 0 mm 1 m/s 731 mmHg 88%
    19:00 +4°C° 0 mm 1 m/s 731 mmHg 89%
    20:00 +3°C° 0 mm 1 m/s 732 mmHg 90%
    21:00 +3°C° 0 mm 1 m/s 732 mmHg 91%
    22:00 +3°C° 0 mm 1 m/s 732 mmHg 91%
    23:00 +2°C° 0 mm 1 m/s 733 mmHg 92%
    Mostrar mais